Date String (YYYY-MM-DD hh:mm:ss) UTC,Instrument flags,Ambient pressure (hPa),Sample flow (lpm),Bypass flow (lpm),Sample temperature (°C),Ambient temperature (°C),ASC tube jacket temperature (°C),LED temperature (°C),Box temperature (°C),Sample RH (%),Span deviation,Mass concentration (μg/m³),Mass concentration (μg/m³),Mass concentration (μg/m³)
DateTimeUTC,F1_M11,P_M11,Q1_M11,Q2_M11,T1_M11,T2_M11,T3_M11,T4_M11,T5_M11,U1_M11,ZSPAN_M11,X0_M11,X2_M11,X1_M11
2022-06-23 11:00:00,,0826.5,5.00,0.00,29.9,28.8,00.0,38.8,31.8,14.4,0000.0,0010.84,0004.46,0003.69
2022-06-23 11:01:00,,0826.5,5.01,0.00,29.9,28.8,00.0,38.8,31.8,14.4,0000.0,0010.98,0004.46,0003.70
2022-06-23 11:02:00,,0826.5,5.00,0.00,29.9,28.8,00.0,38.8,31.7,14.4,0000.0,0010.72,0004.49,0003.70
2022-06-23 11:03:00,,0826.6,4.98,0.00,30.0,28.8,00.0,38.8,31.8,14.4,0000.0,0010.78,0004.53,0003.70
2022-06-23 11:04:00,,0826.5,5.00,0.00,30.0,28.9,00.0,38.8,31.8,14.4,0000.0,0011.59,0004.55,0003.70
2022-06-23 11:05:00,,0826.5,5.00,0.00,30.0,28.9,00.0,38.8,31.8,14.4,0000.0,0012.35,0004.62,0003.71
2022-06-23 11:06:00,,0826.5,5.00,0.00,30.0,28.9,00.0,38.8,31.8,14.4,0000.0,0012.49,0004.63,0003.73
2022-06-23 11:07:00,,0826.5,5.01,0.00,30.0,28.9,00.0,38.8,31.9,14.4,0000.0,0012.61,0004.67,0003.75
2022-06-23 11:08:00,,0826.5,4.99,0.00,30.0,28.9,00.0,38.8,31.9,14.4,0000.0,0013.18,0004.78,0003.78
2022-06-23 11:09:00,,0826.5,5.00,0.00,30.0,29.0,00.0,38.8,31.9,14.4,0000.0,0014.11,0004.87,0003.80
2022-06-23 11:10:00,,0826.5,5.00,0.00,30.0,29.0,00.0,38.8,31.9,14.4,0000.0,0014.36,0004.91,0003.83
2022-06-23 11:11:00,,0826.5,5.01,0.00,30.0,29.0,00.0,38.9,31.9,14.4,0000.0,0014.26,0004.96,0003.86
2022-06-23 11:12:00,,0826.5,5.00,0.00,30.1,29.0,00.0,38.9,31.9,14.4,0000.0,0014.03,0004.96,0003.86
2022-06-23 11:13:00,,0826.5,4.99,0.00,30.1,29.0,00.0,38.9,31.9,14.4,0000.0,0014.11,0005.02,0003.88
2022-06-23 11:14:00,,0826.5,4.99,0.00,30.1,29.0,00.0,38.9,31.9,14.3,0000.0,0014.36,0005.09,0003.88
2022-06-23 11:15:00,,0826.5,5.01,0.00,30.1,29.0,00.0,38.9,31.9,14.3,0000.0,0013.50,0005.11,0003.89
2022-06-23 11:16:00,,0826.5,5.00,0.00,30.1,29.0,00.0,38.9,31.9,14.3,0000.0,0013.01,0005.13,0003.88
2022-06-23 11:17:00,,0826.5,5.00,0.00,30.1,29.0,00.0,38.9,31.9,14.1,0000.0,0012.93,0005.13,0003.87
2022-06-23 11:18:00,,0826.5,5.00,0.00,30.1,29.1,00.0,38.9,32.0,13.9,0000.0,0012.85,0005.08,0003.84
2022-06-23 11:19:00,,0826.5,5.01,0.00,30.1,29.1,00.0,38.9,32.0,14.0,0000.0,0012.80,0004.99,0003.82
2022-06-23 11:20:00,,0826.5,5.00,0.00,30.1,29.1,00.0,38.9,32.0,14.1,0000.0,0011.97,0004.92,0003.79
2022-06-23 11:21:00,,0826.5,5.01,0.00,30.1,29.1,00.0,38.9,32.0,14.2,0000.0,0011.36,0004.84,0003.75
2022-06-23 11:22:00,,0826.5,4.99,0.00,30.1,29.1,00.0,38.9,32.0,14.2,0000.0,0010.71,0004.79,0003.72
2022-06-23 11:23:00,,0826.5,5.00,0.00,30.1,29.1,00.0,39.0,32.0,14.2,0000.0,0010.61,0004.76,0003.70
2022-06-23 11:24:00,,0826.5,5.00,0.00,30.1,29.1,00.0,39.0,32.0,14.1,0000.0,0010.30,0004.71,0003.67
2022-06-23 11:25:00,,0826.5,5.01,0.00,30.2,29.1,00.0,39.0,32.0,14.1,0000.0,0010.25,0004.64,0003.65
2022-06-23 11:26:00,,0826.5,5.00,0.00,30.2,29.1,00.0,39.0,32.0,14.2,0000.0,0010.40,0004.58,0003.63
2022-06-23 11:27:00,,0826.5,4.99,0.00,30.2,29.1,00.0,39.0,32.0,14.2,0000.0,0010.18,0004.52,0003.61
2022-06-23 11:28:00,,0826.6,5.01,0.00,30.2,29.1,00.0,39.0,32.0,14.2,0000.0,0010.14,0004.48,0003.62
2022-06-23 11:29:00,,0826.7,5.01,0.00,30.2,29.1,00.0,39.0,32.0,14.2,0000.0,0010.07,0004.49,0003.63
2022-06-23 11:30:00,,0826.6,5.00,0.00,30.2,29.1,00.0,39.0,32.0,14.1,0000.0,0009.62,0004.51,0003.64
2022-06-23 11:31:00,,0826.7,5.00,0.00,30.2,29.1,00.0,39.0,32.0,14.0,0000.0,0009.53,0004.52,0003.65
2022-06-23 11:32:00,,0826.7,4.99,0.00,30.2,29.1,00.0,39.0,32.0,14.1,0000.0,0009.62,0004.55,0003.67
2022-06-23 11:33:00,,0826.7,5.00,0.00,30.2,29.1,00.0,39.0,32.0,14.1,0000.0,0009.62,0004.55,0003.68
2022-06-23 11:34:00,,0826.7,5.00,0.00,30.2,29.1,00.0,39.0,32.0,14.0,0000.0,0009.78,0004.56,0003.70
2022-06-23 11:35:00,,0826.7,5.00,0.00,30.2,29.1,00.0,39.0,32.0,13.9,0000.0,0009.93,0004.54,0003.71
2022-06-23 11:36:00,,0826.7,4.98,0.00,30.2,29.1,00.0,39.0,32.0,13.9,0000.0,0010.43,0004.52,0003.72
2022-06-23 11:37:00,,0826.7,5.00,0.00,30.2,29.1,00.0,39.0,32.0,13.9,0000.0,0010.32,0004.49,0003.73
2022-06-23 11:38:00,,0826.7,5.01,0.00,30.2,29.2,00.0,39.1,32.0,13.8,0000.0,0010.12,0004.48,0003.74
2022-06-23 11:39:00,,0826.7,5.00,0.00,30.2,29.2,00.0,39.1,32.0,13.8,0000.0,0009.92,0004.52,0003.75
2022-06-23 11:40:00,,0826.6,5.00,0.00,30.3,29.2,00.0,39.1,32.1,13.8,0000.0,0010.69,0004.56,0003.74
2022-06-23 11:41:00,,0826.7,4.99,0.00,30.3,29.2,00.0,39.1,32.1,13.8,0000.0,0011.15,0004.55,0003.74
2022-06-23 11:42:00,,0826.7,5.00,0.00,30.3,29.2,00.0,39.1,32.1,13.8,0000.0,0011.29,0004.55,0003.74
2022-06-23 11:43:00,,0826.7,5.00,0.00,30.3,29.2,00.0,39.1,32.1,13.8,0000.0,0011.83,0004.54,0003.74
2022-06-23 11:44:00,,0826.7,5.01,0.00,30.3,29.2,00.0,39.1,32.1,13.8,0000.0,0012.95,0004.56,0003.74
2022-06-23 11:45:00,,0826.7,5.01,0.00,30.3,29.2,00.0,39.1,32.1,13.8,0000.0,0013.09,0004.54,0003.74
2022-06-23 11:46:00,,0826.7,4.99,0.00,30.3,29.2,00.0,39.1,32.1,13.8,0000.0,0012.99,0004.53,0003.74
2022-06-23 11:47:00,,0826.9,5.00,0.00,30.3,29.2,00.0,39.1,32.1,13.8,0000.0,0012.08,0004.50,0003.74
2022-06-23 11:48:00,,0826.7,5.00,0.00,30.3,29.2,00.0,39.1,32.1,13.8,0000.0,0011.87,0004.55,0003.74
2022-06-23 11:49:00,,0826.7,5.00,0.00,30.3,29.2,00.0,39.1,32.1,13.8,0000.0,0012.08,0004.57,0003.74
2022-06-23 11:50:00,,0826.7,4.99,0.00,30.3,29.2,00.0,39.1,32.1,13.8,0000.0,0012.59,0004.55,0003.74
2022-06-23 11:51:00,,0826.7,5.00,0.00,30.3,29.2,00.0,39.1,32.1,13.8,0000.0,0011.87,0004.56,0003.75
2022-06-23 11:52:00,,0826.7,5.02,0.00,30.3,29.3,00.0,39.1,32.1,13.8,0000.0,0011.51,0004.58,0003.76
2022-06-23 11:53:00,,0826.7,5.01,0.00,30.3,29.3,00.0,39.1,32.1,13.8,0000.0,0011.39,0004.61,0003.77
2022-06-23 11:54:00,,0826.7,5.00,0.00,30.3,29.3,00.0,39.1,32.1,13.8,0000.0,0011.05,0004.62,0003.78
2022-06-23 11:55:00,,0826.7,4.99,0.00,30.3,29.3,00.0,39.2,32.1,13.8,0000.0,0010.02,0004.63,0003.79
2022-06-23 11:56:00,,0826.7,5.01,0.00,30.3,29.3,00.0,39.2,32.1,13.8,0000.0,0009.72,0004.65,0003.79
2022-06-23 11:57:00,,0826.7,5.01,0.00,30.4,29.3,00.0,39.2,32.1,13.8,0000.0,0009.86,0004.68,0003.80
2022-06-23 11:58:00,,0826.7,5.00,0.00,30.4,29.3,00.0,39.2,32.2,13.8,0000.0,0009.94,0004.72,0003.81
2022-06-23 11:59:00,,0826.7,5.00,0.00,30.4,29.3,00.0,39.2,32.2,13.9,0000.0,0010.18,0004.78,0003.83
